This demonstration page uses our WeatherBlox Daily Observations layout. Learn more.

Left ArrowRight Arrow

39.12711, -84.51439

Hourly Observations for January 19, 2022

Temp ( °F °C ) Dew Point ( °F °C ) Humidity (%) Winds ( mph kmh ) Pressure ( in mb ) Visibility ( mi km ) Precip ( " mm )
12:53 am 00:53 Clear 31 -0.6 29 -1.7 92 92 WSW 7 11 29.99 1016 10 16 0.00 0.00
1:53 am 01:53 Clear 35 1.7 31 -0.6 85 85 SW 7 11 29.98 1015 10 16 0.00 0.00
2:53 am 02:53 Clear 38 3.3 32 0 79 79 SSW 15 24 29.98 1015 10 16 0.00 0.00
3:53 am 03:53 Clear 39 3.9 32 0 76 76 SSW 13 20 29.97 1015 10 16 0.00 0.00
4:53 am 04:53 Clear 39 3.9 32 0 76 76 SSW 12 19 29.96 1015 10 16 0.00 0.00
5:53 am 05:53 Mostly Cloudy 40 4.4 33 0.6 77 77 SW 13 20 29.96 1015 10 16 0.00 0.00
6:53 am 06:53 Clear 39 3.9 32 0 76 76 SSW 10 17 29.98 1015 10 16 0.00 0.00
7:53 am 07:53 Clear 41 5 33 0.6 73 73 SSW 9 15 29.98 1015 10 16 0.00 0.00
8:53 am 08:53 Sunny 44 6.7 34 1.1 68 68 SSW 7 11 30.00 1016 10 16 0.00 0.00
9:53 am 09:53 Mostly Sunny 46 7.8 35 1.7 66 66 SW 6 9 30.01 1016 10 16 0.00 0.00
10:53 am 10:53 Mostly Sunny 50 10 36 2.2 59 59 SW 12 19 30.01 1016 10 16 0.00 0.00
11:53 am 11:53 Mostly Sunny 52 11.1 37 2.8 57 57 WSW 14 22 30.00 1016 10 16 0.00 0.00
12:53 pm 12:53 Partly Cloudy 52 11.1 37 2.8 57 57 W 15 24 29.98 1015 10 16 0.00 0.00
1:53 pm 13:53 Cloudy 52 11.1 37 2.8 57 57 WSW 10 17 29.97 1015 10 16 0.00 0.00
2:53 pm 14:53 Cloudy 52 11.1 37 2.8 57 57 W 12 19 29.97 1015 10 16 0.00 0.00
3:53 pm 15:53 Mostly Sunny 51 10.6 37 2.8 59 59 W 8 13 29.98 1015 10 16 0.00 0.00
4:53 pm 16:53 Partly Cloudy 49 9.4 35 1.7 59 59 W 8 13 30.01 1016 10 16 0.00 0.00
5:53 pm 17:53 Cloudy 47 8.3 31 -0.6 54 54 NW 8 13 30.03 1017 10 16 0.00 0.00
6:53 pm 18:53 Cloudy 43 6.1 27 -2.8 53 53 NNW 13 20 30.06 1018 10 16 0.00 0.00
7:53 pm 19:53 Cloudy 39 3.9 27 -2.8 62 62 NNW 7 11 30.12 1020 10 16 0.00 0.00
8:53 pm 20:53 Mostly Cloudy 35 1.7 24 -4.4 64 64 NNW 14 22 30.16 1021 10 16 0.00 0.00
9:53 pm 21:53 Cloudy 33 0.6 21 -6.1 61 61 N 14 22 30.19 1022 10 16 0.00 0.00
10:53 pm 22:53 Cloudy 31 -0.6 21 -6.1 67 67 NNW 13 20 30.22 1023 10 16 0.00 0.00
11:26 pm 23:26 Cloudy 30 -1.1 20 -6.7 66 66 N 16 26 30.26 1025 10 16 0.00 0.00
11:53 pm 23:53 Cloudy 29 -1.7 19 -7.2 66 66 N 14 22 30.25 1024 10 16 0.00 0.00

Powered by AerisWeather